KD5OH Weather Reports


time (UTC)temp
C
wind
direction
speed
KPH
gust
KPH
rain 1hr
cm
rain 24hr
cm
rain mn
cm
humidity
%
barometer
mb
20260902223128 33 244 4.8 14.5 0.00 0.00 0.00 22 1016.7
20260902221623 35 243 4.8 14.5 0.00 0.00 0.00 19 1016.8
20260902220135 35 234 6.4 17.7 0.00 0.00 0.00 19 1016.9
20260902214647 35 296 4.8 16.1 0.00 0.00 0.00 20 1016.8
20260902213121 35 274 6.4 17.7 0.00 0.00 0.00 20 1017.1
20260902211632 35 277 1.6 8.0 0.00 0.00 0.00 21 1017.2
20260902210128 35 325 6.4 19.3 0.00 0.00 0.00 20 1017.4
20260902204701 35 137 4.8 9.7 0.00 0.00 0.00 20 1017.8
20260902203153 34 286 3.2 9.7 0.00 0.00 0.00 21 1018.1
20260902201626 35 253 9.7 17.7 0.00 0.00 0.00 21 1018.2
20260902200138 35 196 6.4 12.9 0.00 0.00 0.00 22 1018.5
20260902194654 34 279 1.6 8.0 0.00 0.00 0.00 22 1018.7
20260902193125 34 235 1.6 16.1 0.00 0.00 0.00 21 1019.0
20260902191636 34 161 8.0 14.5 0.00 0.00 0.00 22 1019.2
20260902190152 33 229 4.8 16.1 0.00 0.00 0.00 22 1019.6
20260902184640 33 214 6.4 16.1 0.00 0.00 0.00 23 1019.8
20260902183136 33 238 9.7 14.5 0.00 0.00 0.00 24 1020.0
20260902181628 33 251 6.4 17.7 0.00 0.00 0.00 23 1020.4
20260902180124 33 270 11.3 19.3 0.00 0.00 0.00 25 1020.4
20260902174655 33 111 6.4 12.9 0.00 0.00 0.00 25 1020.6
20260902173125 32 217 8.0 14.5 0.00 0.00 0.00 26 1020.9
20260902171640 32 187 4.8 16.1 0.00 0.00 0.00 26 1021.0
20260902170151 32 256 6.4 12.9 0.00 0.00 0.00 25 1021.1
20260902164626 31 184 4.8 14.5 0.00 0.00 0.00 26 1021.0
20260902163138 31 147 6.4 12.9 0.00 0.00 0.00 27 1021.1
20260902161650 31 208 8.0 12.9 0.00 0.00 0.00 28 1021.0
20260902160146 30 142 4.8 12.9 0.00 0.00 0.00 29 1021.0
20260902154636 30 172 3.2 12.9 0.00 0.00 0.00 31 1021.0
20260902153131 29 158 6.4 12.9 0.00 0.00 0.00 31 1020.7
20260902151622 28 149 6.4 14.5 0.00 0.00 0.00 32 1020.8
20260902150134 28 143 0.0 0.0 0.00 0.00 0.00 34 1020.7
20260902144650 28 130 4.8 12.9 0.00 0.00 0.00 35 1020.7
20260902143122 27 201 3.2 6.4 0.00 0.00 0.00 39 1020.6
20260902141657 25 142 3.2 8.0 0.00 0.00 0.00 41 1020.4
20260902140128 24 129 0.0 1.6 0.00 0.00 0.00 46 1020.3
20260902134629 23 138 0.0 1.6 0.00 0.00 0.00 47 1020.2
20260902133124 22 120 0.0 1.6 0.00 0.00 0.00 48 1020.0
20260902131636 21 142 0.0 0.0 0.00 0.00 0.00 50 1019.9
20260902130132 20 131 0.0 1.6 0.00 0.00 0.00 50 1019.7
20260902124623 19 118 0.0 0.0 0.00 0.00 0.00 53 1019.7
20260902123139 19 103 0.0 0.0 0.00 0.00 0.00 55 1019.7
20260902121631 19 130 0.0 0.0 0.00 0.00 0.00 55 1019.5
20260902120123 20 109 0.0 0.0 0.00 0.00 0.00 54 1019.4
20260902114638 20 158 0.0 0.0 0.00 0.00 0.00 52 1019.3
20260902113131 20 91 0.0 1.6 0.00 0.00 0.00 52 1019.3
20260902111626 21 172 0.0 3.2 0.00 0.00 0.00 49 1019.1
20260902110139 22 147 3.2 4.8 0.00 0.00 0.00 47 1019.1
20260902104635 22 151 1.6 6.4 0.00 0.00 0.00 46 1019.1
20260902103127 22 137 3.2 6.4 0.00 0.00 0.00 46 1019.0
20260902101623 21 121 3.2 8.0 0.00 0.00 0.00 48 1019.1
20260902100136 20 123 0.0 1.6 0.00 0.00 0.00 53 1019.1
20260902094627 20 99 0.0 1.6 0.00 0.00 0.00 55 1019.1
20260902093123 20 94 0.0 1.6 0.00 0.00 0.00 54 1019.1
20260902091634 20 80 0.0 3.2 0.00 0.00 0.00 54 1019.2
20260902090151 20 161 0.0 0.0 0.00 0.00 0.00 54 1019.3
20260902084621 20 272 0.0 0.0 0.00 0.00 0.00 54 1019.1
20260902083154 20 272 0.0 1.6 0.00 0.00 0.00 55 1019.2
20260902081628 20 274 0.0 1.6 0.00 0.00 0.00 53 1019.2
20260902080201 21 157 0.0 0.0 0.00 0.00 0.00 50 1019.3
20260902074635 21 237 0.0 1.6 0.00 0.00 0.00 49 1019.2
20260902073127 22 232 0.0 0.0 0.00 0.00 0.00 48 1019.2
20260902071639 22 232 0.0 0.0 0.00 0.00 0.00 48 1019.4
20260902070136 22 257 0.0 0.0 0.00 0.00 0.00 48 1019.3
20260902064627 23 249 0.0 1.6 0.00 0.00 0.00 45 1019.2
20260902063122 23 123 0.0 1.6 0.00 0.00 0.00 43 1019.2
20260902061634 23 131 0.0 1.6 0.00 0.00 0.00 43 1019.2
20260902060148 25 144 0.0 1.6 0.00 0.00 0.00 41 1019.2
20260902054622 25 147 0.0 4.8 0.00 0.00 0.00 41 1019.1
20260902053133 24 110 1.6 4.8 0.00 0.00 0.00 43 1019.3
20260902051628 24 208 0.0 3.2 0.00 0.00 0.00 43 1019.6
20260902050201 24 212 0.0 3.2 0.00 0.00 0.00 42 1019.6
20260902044635 24 218 0.0 3.2 0.00 0.03 0.00 42 1019.6
20260902043148 25 219 0.0 0.0 0.00 0.03 0.00 40 1019.5
20260902041658 25 244 0.0 0.0 0.00 0.03 0.00 40 1019.5
20260902040135 25 242 0.0 4.8 0.00 0.03 0.00 39 1019.3
20260902034625 26 106 0.0 1.6 0.00 0.05 0.00 36 1018.9
20260902033135 26 140 0.0 6.4 0.00 0.05 0.00 35 1018.8
20260902031648 26 128 1.6 4.8 0.00 0.05 0.00 37 1018.5
20260902030138 26 23 0.0 0.0 0.00 0.05 0.00 35 1018.0
20260902024648 27 23 0.0 1.6 0.00 0.05 0.00 33 1017.9
20260902023143 26 28 1.6 3.2 0.00 0.05 0.00 35 1017.8
20260902021633 27 285 0.0 1.6 0.00 0.05 0.00 34 1017.5
20260902020148 27 280 0.0 3.2 0.00 0.05 0.00 33 1017.3
20260902014640 28 79 0.0 0.0 0.00 0.05 0.00 31 1017.0
20260902013131 30 79 0.0 0.0 0.00 0.05 0.00 28 1016.8
20260902011624 31 78 0.0 0.0 0.00 0.05 0.00 26 1016.7
20260902010135 31 75 0.0 0.0 0.00 0.05 0.00 26 1016.8
20260902004630 31 72 0.0 3.2 0.00 0.05 0.00 25 1016.8
20260902003141 31 64 1.6 4.8 0.00 0.05 0.00 24 1016.8
20260902001651 32 99 3.2 4.8 0.00 0.05 0.00 24 1016.9
20260902000144 32 19 1.6 6.4 0.00 0.05 0.00 23 1017.0
20260901234634 33 274 0.0 4.8 0.00 0.05 0.00 23 1017.0
20260901233123 33 160 0.0 3.2 0.00 0.05 0.00 23 1016.9
20260901231639 33 261 1.6 3.2 0.00 0.05 0.00 23 1016.9
20260901230129 32 326 1.6 8.0 0.00 0.05 0.00 23 1017.0
20260901224643 33 309 3.2 9.7 0.00 0.05 0.00 22 1017.1